FW3304 Weather Reports


Display with metric or nautical units.
time (UTC)temp
F
wind
direction
speed
MPH
gust
MPH
rain 1hr
in
rain 24hr
in
rain mn
in
humidity
%
barometer
mb
20260505001510 75 207 4.0 10.0 0.00 0.00 0.00 50 1007.6
20260505000015 76 203 5.0 16.0 0.00 0.00 0.00 48 1009.6
20260505000008 76 158 4.0 11.0 0.00 0.00 0.00 48 1007.7
20260504234506 77 224 6.0 10.0 0.00 0.00 0.00 47 1007.8
20260504233020 77 213 7.0 18.0 0.00 0.00 0.00 46 1010.1
20260504233004 77 198 5.0 14.0 0.00 0.00 0.00 46 1008.1
20260504231504 77 200 6.0 16.0 0.00 0.00 0.00 46 1008.3
20260504230015 77 217 7.0 19.0 0.00 0.00 0.00 46 1010.4
20260504230002 77 210 8.0 17.0 0.00 0.00 0.00 46 1008.3
20260504224601 78 158 7.0 17.0 0.00 0.00 0.00 45 1008.4
20260504224503 78 238 6.0 17.0 0.00 0.00 0.00 45 1008.4
20260504223100 78 207 6.0 18.0 0.00 0.00 0.00 47 1008.4
20260504223015 78 229 8.0 19.0 0.00 0.00 0.00 45 1010.4
20260504221559 79 248 7.0 16.0 0.00 0.00 0.00 44 1008.4
20260504220058 79 225 10.0 16.0 0.00 0.00 0.00 44 1008.4
20260504220015 79 213 7.0 23.0 0.00 0.00 0.00 45 1010.6
20260504214606 79 196 11.0 19.0 0.00 0.00 0.00 44 1008.3
20260504213056 79 228 4.0 19.0 0.00 0.00 0.00 44 1008.2
20260504213015 79 227 8.0 23.0 0.00 0.00 0.00 44 1010.6
20260504211555 79 212 9.0 23.0 0.00 0.00 0.00 43 1008.2
20260504210059 79 246 5.0 18.0 0.00 0.00 0.00 45 1008.2
20260504210015 79 211 8.0 21.0 0.00 0.00 0.00 45 1010.3
20260504204554 80 229 6.0 16.0 0.00 0.00 0.00 46 1008.2
20260504203055 80 186 8.0 13.0 0.00 0.00 0.00 45 1008.3
20260504203015 80 213 8.0 23.0 0.00 0.00 0.00 45 1010.5
20260504201547 79 198 7.0 21.0 0.00 0.00 0.00 45 1008.5
20260504200045 79 255 10.0 24.0 0.00 0.00 0.00 45 1008.8
20260504200020 79 217 9.0 23.0 0.00 0.00 0.00 45 1010.9
20260504194545 79 204 6.0 19.0 0.00 0.00 0.00 47 1009.0
20260504193040 78 224 11.0 23.0 0.00 0.00 0.00 47 1009.2
20260504193015 78 210 10.0 23.0 0.00 0.00 0.00 48 1011.4
20260504191546 78 198 10.0 25.0 0.00 0.00 0.00 48 1009.2
20260504190038 78 205 7.0 21.0 0.00 0.00 0.00 51 1009.5
20260504190015 78 222 9.0 22.0 0.00 0.00 0.00 50 1011.6
20260504184533 78 219 7.0 17.0 0.00 0.00 0.00 49 1009.7
20260504183032 78 198 11.0 21.0 0.00 0.00 0.00 47 1009.9
20260504183021 78 222 10.0 24.0 0.00 0.00 0.00 48 1012.0
20260504181531 78 184 11.0 21.0 0.00 0.00 0.00 49 1010.1
20260504180029 78 314 6.0 16.0 0.00 0.00 0.00 51 1010.1
20260504180015 78 218 9.0 24.0 0.00 0.00 0.00 51 1012.2
20260504174525 77 212 8.0 15.0 0.00 0.00 0.00 51 1010.2
20260504173023 77 184 8.0 18.0 0.00 0.00 0.00 53 1010.3
20260504173015 77 229 8.0 23.0 0.00 0.00 0.00 53 1012.6
20260504171530 76 214 6.0 16.0 0.00 0.00 0.00 54 1010.6
20260504081500 61 195 6.0 13.0 0.00 0.00 0.00 62 1011.8
20260504050024 58 187 1.0 2.0 0.00 0.00 0.00 63 1013.5
20260504050016 58 183 1.0 7.0 0.00 0.00 0.00 63 1015.2
20260504044525 58 189 1.0 4.0 0.00 0.00 0.00 62 1013.5
20260504043033 58 194 2.0 7.0 0.00 0.00 0.00 61 1013.6
20260504043016 58 193 2.0 8.0 0.00 0.00 0.00 61 1015.2
20260504041523 59 191 2.0 5.0 0.00 0.00 0.00 61 1013.7
20260504040025 59 207 3.0 7.0 0.00 0.00 0.00 61 1013.7
20260504040016 59 199 3.0 9.0 0.00 0.00 0.00 61 1015.4
20260504034520 59 208 3.0 7.0 0.00 0.00 0.00 61 1013.9
20260504033020 59 205 4.0 8.0 0.00 0.00 0.00 61 1013.9
20260504033016 59 194 4.0 9.0 0.00 0.00 0.00 61 1015.4
20260504031520 59 194 3.0 9.0 0.00 0.00 0.00 61 1014.0
20260504030019 59 196 3.0 7.0 0.00 0.00 0.00 61 1013.9
20260504030015 59 189 2.0 7.0 0.00 0.00 0.00 61 1015.4
20260504024519 59 176 3.0 5.0 0.00 0.00 0.00 60 1014.0
20260504023021 59 199 2.0 5.0 0.00 0.00 0.00 59 1014.2
20260504021517 60 185 2.0 6.0 0.00 0.00 0.00 58 1014.1
20260504020055 60 202 1.0 5.0 0.00 0.00 0.00 58 1015.5
20260504020017 60 200 2.0 5.0 0.00 0.00 0.00 58 1014.1
20260504014516 60 203 2.0 4.0 0.00 0.00 0.00 57 1014.0
20260504013019 61 209 0.0 3.0 0.00 0.00 0.00 56 1014.0
20260504013015 61 208 0.0 6.0 0.00 0.00 0.00 56 1015.5
20260504011521 62 210 0.0 3.0 0.00 0.00 0.00 53 1014.0
20260504010015 63 211 0.0 4.0 0.00 0.00 0.00 51 1014.0
20260504004514 64 192 2.0 6.0 0.00 0.00 0.00 50 1013.7
20260504003015 65 203 4.0 13.0 0.00 0.00 0.00 49 1015.3
20260504003012 65 203 4.0 8.0 0.00 0.00 0.00 49 1013.9